Probability
0 0 0 0 0 0 0 0 0 0 0 0 0 0 0 0 0 0 0 0 0 0 0 0 0 0 0 0 0 0 0 0 0 0 0 0 0 0 0 0 0 0 0 0 0 0 0 0 0
0 0 0 0 0 0 0 0 0 0 0 0 0 0 0 0 0 0 0 0 0 0 0 0 0 0 0 0 0 0 0 0 0 0 0 0 0 0 0 0 0 0 0 0 0 0 0 0 0
0 0 0 0 0 0 0 0 0 0 0 0 0 0 0 0 0 0 0 0 0 0 0 0 0 0 0 0 0 0 0 0 0 0 0 0 0 0 0 0 0 0 0 0 0 0 0 0 0
0 0 0 0 0 0 0 1 1 1 0 0 0 0 0 0 0 0 0 0 0 0 0 0 0 0 0 0 0 0 0 0 0 0 0 0 0 0 0 0 0 1 1 1 0 0 0 0 0
0 0 0 0 0 0 1 2 2 2 1 0 0 0 1 1 1 0 0 0 0 0 0 0 0 0 0 0 0 0 0 0 0 0 0 0 0 0 0 0 0 1 1 1 0 0 0 0 0
0 0 0 0 0 0 1 2 3 2 1 0 0 0 1 2 1 0 0 0 0 0 0 0 0 0 0 0 0 0 0 0 0 0 0 0 0 1 0 0 0 0 0 0 0 0 0 0 0
0 0 0 0 0 0 0 1 2 1 0 0 1 2 2 2 2 1 1 0 0 0 0 0 0 0 0 0 0 0 0 0 0 0 0 0 0 0 0 0 0 0 0 0 0 0 0 0 0
0 0 0 0 0 0 0 0 0 0 0 0 2 3 3 3 3 3 2 1 0 0 0 0 0 0 0 0 0 0 0 0 0 0 0 0 0 0 0 0 0 0 0 0 0 0 0 0 0
0 0 0 0 0 0 1 1 0 0 0 0 1 2 3 3 3 3 2 1 0 0 0 0 0 0 0 0 0 0 0 0 0 0 0 0 0 0 0 0 0 0 0 0 0 0 0 0 0
0 0 0 0 0 1 2 1 0 0 0 0 1 2 3 3 3 3 2 1 0 0 0 0 0 0 0 0 0 0 0 0 0 0 0 0 0 0 0 0 0 0 0 0 0 0 0 0 0
0 0 0 0 1 2 2 1 0 0 0 0 2 4 4 3 3 3 3 2 0 0 0 0 0 0 0 0 0 0 0 0 0 0 0 0 0 0 0 0 0 0 0 0 0 0 0 0 0
0 0 0 0 1 2 2 1 1 0 0 1 4 7 6 4 4 3 3 3 2 0 0 0 0 0 0 0 0 0 0 0 0 0 0 0 0 0 0 0 0 0 0 0 0 0 0 0 0
0 0 0 0 0 1 2 2 2 1 1 2 5 7 6 5 5 4 4 5 4 3 1 0 0 0 0 0 0 0 0 0 0 0 0 0 0 0 0 0 0 0 0 0 0 0 0 0 0
0 0 0 0 0 0 2 3 3 2 1 1 4 5 5 5 6 6 6 6 6 5 3 1 0 0 0 0 0 0 0 0 0 0 0 0 0 0 0 0 0 0 0 0 0 0 0 0 0
1 1 0 0 0 0 1 2 2 1 1 1 3 3 3 4 7 9 9 8 6 6 4 2 1 0 0 0 0 0 0 0 0 0 0 1 1 1 0 1 1 0 0 0 0 0 0 0 0
0 0 0 0 0 0 0 1 2 2 1 2 2 2 2 4 7 10 11 9 6 4 2 1 1 0 0 0 0 0 0 0 0 0 0 1 2 2 1 2 2 1 0 0 0 0 0 0 0
0 0 0 0 0 0 0 1 2 2 1 1 1 1 3 5 7 9 10 8 5 3 1 0 0 0 0 0 0 0 0 0 0 0 0 1 2 2 1 2 2 1 0 0 0 0 0 0 0
0 0 0 0 0 0 0 1 2 1 0 0 0 1 4 6 7 9 9 7 3 1 0 0 0 0 0 0 0 0 0 0 0 0 0 1 3 3 2 1 1 0 0 0 0 0 0 0 0
0 0 0 0 0 0 0 1 2 1 0 0 0 2 6 7 9 11 10 7 5 3 1 0 0 0 0 0 0 0 0 0 0 0 0 1 3 4 3 2 1 0 0 0 0 0 0 0 0
0 0 0 0 0 0 0 1 2 2 1 0 1 4 8 10 11 12 12 10 9 6 3 1 1 0 0 0 0 0 0 0 0 0 0 0 2 3 4 3 2 1 0 0 0 0 0 0 0
0 0 0 0 0 0 0 0 1 1 2 2 2 5 9 11 12 13 14 14 12 8 4 3 2 1 1 1 0 0 0 0 0 0 0 0 1 2 3 3 3 2 1 1 0 0 0 0 0
0 0 0 0 0 0 0 0 0 1 2 3 4 6 8 10 11 13 15 15 12 7 4 4 4 2 1 2 1 0 0 0 0 0 0 0 0 2 3 3 3 3 3 2 1 1 0 0 0
0 0 0 0 0 0 0 0 0 0 1 3 4 6 8 9 11 12 13 13 10 6 4 4 4 2 1 1 2 1 1 1 0 0 0 1 1 2 3 4 3 3 3 3 3 2 1 0 0
0 0 0 0 0 0 0 0 0 0 1 3 4 6 7 9 10 11 11 10 8 5 4 4 3 2 1 2 3 3 4 3 1 0 1 2 3 4 5 5 4 4 3 3 3 3 2 1 0
0 0 0 0 0 0 0 0 0 0 1 2 5 6 7 8 9 10 9 8 7 5 3 2 2 2 3 5 7 7 5 4 2 1 2 3 4 5 6 5 5 4 4 3 3 3 3 2 1
0 0 0 0 0 0 0 0 1 1 1 2 4 7 7 7 7 8 8 7 8 6 3 2 3 3 4 6 8 7 5 5 4 4 5 6 6 6 5 4 4 4 3 3 3 3 3 2 1
0 0 0 0 0 0 0 0 1 2 2 3 5 7 7 6 5 6 8 9 8 7 6 6 5 5 5 5 5 5 5 6 7 7 7 7 7 5 3 3 3 3 3 3 3 3 3 2 1
0 0 0 0 0 0 0 0 0 1 2 4 5 6 7 6 5 6 8 10 9 9 10 9 8 8 6 4 4 4 5 6 7 8 8 7 5 3 2 3 3 3 3 3 3 3 3 3 2
0 0 0 0 0 0 0 0 0 0 1 4 5 5 6 5 5 5 8 10 11 12 12 10 9 8 7 6 5 4 5 6 8 9 8 6 3 1 2 3 3 3 3 3 3 3 3 3 3
0 0 0 0 0 0 0 0 0 0 2 5 6 5 5 5 4 6 9 10 12 14 13 10 7 7 9 8 6 5 6 8 9 9 8 6 3 2 3 4 4 3 3 3 3 3 3 3 3
Wind_Speed
5 4 3 2 6 7 4 4 3 4 4 4 7 7 7 5 3 4 1 4 4 3 3 6 10 12 13 13 14 15 15 15 15 15 16 16 16 17 16 16 16 16 16 16 16 16 16 16 15
4 3 2 5 7 5 4 3 5 4 4 4 6 7 7 5 4 5 3 3 4 4 3 6 10 11 12 13 13 14 14 15 14 14 15 15 15 16 16 16 16 15 16 16 16 16 15 15 14
4 2 4 6 5 4 3 1 5 5 4 3 5 5 5 3 3 3 3 6 5 4 3 5 11 11 12 12 12 13 13 14 14 14 14 14 15 15 15 15 15 15 15 15 15 15 14 14 13
3 4 6 7 6 1 4 4 5 6 5 6 5 6 5 4 3 4 7 7 6 4 3 5 10 10 11 12 12 12 13 13 13 13 13 13 14 14 14 14 13 13 13 14 14 13 13 12 12
4 6 7 5 4 3 4 5 3 5 4 5 5 6 4 5 8 10 8 7 6 4 3 5 10 10 10 11 11 11 12 12 12 13 13 12 12 12 13 13 12 12 12 12 12 12 11 11 10
5 6 6 4 4 4 3 4 5 8 6 5 5 5 3 3 7 7 7 6 5 4 3 4 8 10 9 10 10 11 11 11 12 12 12 11 11 11 11 11 11 11 10 10 10 10 10 9 9
5 5 4 4 3 3 3 3 4 5 6 4 4 5 3 3 4 6 6 5 4 4 4 3 3 5 8 9 9 10 10 10 10 10 10 10 10 9 9 9 9 9 9 9 8 8 8 8 7
5 6 4 2 4 3 4 3 4 5 5 5 4 6 5 5 7 7 6 5 4 3 3 3 4 4 3 4 7 9 9 8 8 9 9 8 8 8 8 7 7 7 7 7 7 7 7 7 6
4 6 3 5 6 4 5 4 3 4 6 3 3 4 6 12 10 8 5 3 2 2 2 2 3 3 3 3 4 5 6 6 6 5 7 7 4 4 4 4 5 5 5 5 5 5 5 5 4
5 4 5 4 6 6 6 5 5 5 4 3 6 8 12 12 10 8 6 5 4 3 2 1 2 2 2 2 3 2 3 3 4 3 4 3 3 2 3 4 4 4 4 4 4 4 4 4 2
4 5 3 3 5 7 7 5 4 7 3 4 9 12 13 11 8 7 6 5 4 3 2 2 2 1 1 1 2 2 2 2 2 3 2 2 2 2 2 2 3 3 3 3 3 4 2 1 1
4 2 4 5 6 6 7 5 5 3 4 7 12 14 13 12 9 9 8 6 4 4 4 3 3 2 1 1 1 1 1 1 1 1 1 1 1 1 1 1 1 2 1 1 1 1 2 1 1
4 3 4 7 8 7 7 5 5 2 6 10 12 12 11 10 8 6 6 5 5 5 4 4 3 3 2 2 1 1 1 1 1 0 1 1 1 0 1 1 1 1 0 0 1 1 1 1 1
4 6 6 6 6 4 6 4 4 3 9 11 11 10 9 9 8 6 6 6 6 6 5 4 4 3 3 2 2 1 1 1 1 1 2 2 1 1 1 1 1 1 1 0 0 0 0 1 0
6 9 7 3 4 3 6 3 1 6 10 10 9 8 8 7 7 8 8 7 6 6 5 4 4 4 3 3 3 2 2 1 1 1 2 2 3 2 2 1 1 1 1 0 0 1 1 0 0
6 6 3 1 2 3 5 2 2 8 10 9 8 8 7 6 7 7 7 6 5 5 5 4 5 4 3 3 2 2 2 2 2 1 1 2 3 3 2 1 2 1 0 0 0 0 1 1 1
5 3 2 1 2 3 3 3 3 7 9 8 7 7 7 6 5 5 6 6 6 6 5 4 3 4 3 2 1 1 1 1 1 1 1 2 2 3 2 2 2 1 1 1 1 0 1 1 1
3 3 2 4 3 4 3 2 3 7 8 7 6 6 6 7 8 6 6 6 6 5 4 4 3 3 2 2 1 0 0 0 0 1 1 2 2 3 2 2 2 2 1 1 1 1 1 1 1
6 5 3 3 2 4 3 2 4 7 7 7 7 7 7 7 6 5 6 6 6 5 4 4 4 3 3 2 1 1 1 1 1 1 2 2 2 2 2 2 2 2 2 2 2 2 2 1 2
6 4 1 1 2 3 2 1 3 7 9 8 9 9 9 6 5 6 6 6 7 6 6 5 4 4 3 2 2 2 1 1 1 1 1 1 2 2 3 3 2 2 2 2 2 2 1 1 2
3 5 5 3 3 4 4 3 1 3 4 5 6 7 8 10 9 8 8 7 7 7 7 6 5 5 4 3 2 1 1 1 1 1 1 1 1 2 2 2 2 2 2 2 2 3 3 2 1
3 4 6 5 5 1 2 2 6 3 4 7 8 9 9 10 9 8 9 9 9 8 7 6 5 4 4 4 3 3 2 2 2 1 1 1 1 1 1 1 2 2 2 2 3 3 3 3 2
4 4 5 5 5 3 2 1 8 1 5 10 11 11 11 10 10 10 11 10 9 8 7 6 5 4 4 4 5 4 3 2 1 1 1 1 1 1 1 1 1 2 2 2 3 2 3 3 3
7 8 8 7 6 1 2 3 7 5 8 7 9 11 11 10 10 10 9 7 7 6 6 6 5 4 4 4 4 4 4 3 2 2 1 1 1 1 1 1 1 1 1 2 2 2 2 2 2
6 8 5 4 4 5 2 3 10 7 7 8 8 10 10 9 10 10 10 9 9 8 8 6 6 5 5 5 4 4 4 3 3 2 2 2 1 1 2 1 1 1 1 1 1 1 1 2 2
4 9 9 6 5 4 1 5 9 5 5 6 6 6 7 8 9 10 11 10 10 9 8 7 7 6 5 5 4 3 3 2 2 2 2 2 1 2 1 0 0 0 0 0 1 0 1 1 1
7 3 6 9 3 1 4 7 9 2 2 1 3 4 6 8 9 9 9 9 8 9 8 8 7 6 5 5 4 3 3 2 2 1 1 1 1 0 1 1 1 1 1 1 1 1 0 0 1
6 10 7 7 6 2 4 4 5 4 4 3 3 5 5 6 7 8 8 8 8 7 6 6 6 6 5 4 4 3 2 2 2 1 1 1 1 1 2 2 1 1 1 1 2 1 1 1 1
5 5 6 6 6 7 3 8 7 8 7 7 6 5 5 6 7 7 7 7 7 6 6 6 5 4 4 4 3 3 2 2 2 2 2 1 1 2 2 2 2 2 1 1 2 1 1 1 1
5 7 8 7 4 4 5 9 6 6 6 6 5 4 4 5 5 5 6 6 7 7 6 6 6 4 4 4 4 3 2 3 3 2 1 2 2 2 2 2 2 2 2 1 2 1 1 1 0
Wind_Direction
151 139 131 83 56 53 43 21 64 63 51 41 69 75 77 58 76 120 123 114 100 87 78 94 95 93 93 94 94 94 94 95 95 96 96 94 95 100 99 100 98 99 99 100 100 101 101 101 102
142 143 81 60 74 66 18 15 73 77 127 121 77 71 68 60 61 101 112 118 101 99 88 100 100 97 96 96 96 96 97 97 97 97 97 97 97 99 99 99 98 100 100 101 102 101 100 100 101
152 121 77 67 78 119 129 87 107 107 107 72 70 62 67 82 102 123 142 127 104 97 91 109 105 102 100 97 96 97 98 99 99 97 97 98 98 98 99 100 100 101 101 101 101 101 100 100 100
120 55 54 65 66 93 143 145 130 113 66 50 74 64 56 66 110 122 127 119 109 100 94 111 107 104 103 102 100 100 101 101 101 100 99 99 99 98 99 99 100 100 100 100 100 101 100 98 99
66 70 60 55 50 64 106 136 109 89 68 60 71 78 46 26 92 111 118 115 113 102 89 105 111 108 107 106 104 103 103 102 101 101 101 101 99 98 98 100 100 100 100 101 100 100 99 98 99
60 67 75 73 71 75 91 95 91 87 88 84 76 82 55 85 104 117 114 109 107 104 93 103 115 113 109 106 104 103 103 102 102 101 101 100 99 99 98 99 101 100 99 100 101 101 100 98 98
93 85 100 115 106 107 133 97 98 109 103 100 99 91 93 124 118 115 106 101 94 89 87 74 85 101 109 109 107 106 105 103 103 102 100 99 99 99 98 96 99 99 96 96 99 101 99 97 98
114 94 88 112 134 144 135 100 103 110 103 118 109 127 157 165 125 107 96 92 89 82 78 73 69 69 73 90 108 109 107 106 104 103 101 97 93 91 92 90 94 96 92 92 94 96 97 94 95
88 79 135 175 163 152 135 118 120 82 105 98 90 126 141 134 125 116 110 99 106 113 78 82 82 78 75 83 99 97 100 94 91 89 90 79 57 56 69 84 93 93 88 86 88 91 89 86 84
84 115 194 187 162 142 135 130 136 105 98 74 77 90 120 134 141 146 153 158 167 168 157 124 109 92 74 86 75 56 56 56 57 55 60 63 59 49 58 47 65 69 67 65 66 61 70 72 64
106 151 162 115 121 120 125 128 112 123 146 168 146 139 142 147 154 163 170 173 183 174 176 169 144 118 103 74 81 62 52 51 51 53 61 59 52 42 40 30 21 26 34 33 31 33 37 54 78
97 103 130 125 119 123 134 125 110 146 191 155 146 146 151 160 170 178 179 180 174 171 193 189 166 155 152 120 91 91 80 67 67 56 72 77 58 38 31 30 17 22 26 30 31 31 16 32 68
77 79 85 110 112 113 108 111 119 123 118 125 134 145 159 169 178 184 180 175 174 181 193 191 174 173 168 149 169 158 169 175 176 141 131 141 136 75 29 7 353 329 357 41 44 36 15 16 20
94 82 81 97 102 100 108 98 94 134 131 135 146 159 171 176 174 171 172 176 181 185 190 180 176 184 172 171 182 191 193 195 196 198 196 182 173 170 184 263 291 290 287 287 70 61 5 347 342
91 81 61 65 89 117 105 64 147 149 143 150 162 171 175 179 174 180 182 181 183 182 178 176 181 180 179 186 194 187 196 186 200 214 210 197 187 184 187 221 272 272 265 272 38 30 26 355 59
63 70 88 232 115 129 118 189 196 152 153 165 173 176 179 184 186 188 180 175 173 168 169 179 182 171 180 181 190 184 190 190 207 209 205 204 194 185 184 202 244 249 226 165 85 26 42 34 57
42 102 148 193 175 140 136 205 186 161 163 177 184 183 182 184 193 191 179 173 170 171 170 174 174 168 179 177 179 188 185 194 211 211 207 206 193 186 188 207 227 202 166 201 229 133 121 88 73
175 155 172 201 200 137 156 230 181 172 177 187 188 188 187 191 201 190 177 170 166 168 169 172 169 169 161 137 103 71 50 229 221 233 235 216 206 201 191 209 222 184 166 192 185 159 124 131 122
150 146 179 223 184 135 177 202 192 180 189 194 195 196 203 205 197 180 172 168 161 170 175 180 178 177 154 138 148 158 220 242 241 239 239 229 216 203 193 205 213 194 191 201 180 156 149 151 133
129 126 159 25 88 126 150 249 203 192 205 201 198 200 204 202 189 182 176 175 176 183 187 188 191 187 183 173 167 174 178 203 208 254 283 242 224 213 204 200 207 203 198 204 184 162 159 178 159
144 166 179 157 77 53 86 348 254 219 208 213 209 203 202 201 196 188 183 185 185 191 192 194 195 193 191 173 134 101 72 35 29 335 296 285 247 227 217 210 206 200 194 211 214 189 182 194 199
197 205 153 134 109 24 98 263 280 231 220 221 218 208 206 204 198 190 187 188 191 196 191 193 191 188 188 170 164 166 171 196 221 223 248 288 286 272 241 220 213 211 202 213 226 206 201 185 201
171 101 106 105 108 68 39 141 285 260 236 235 223 215 210 200 196 194 194 194 191 187 184 186 182 187 186 180 180 179 189 198 201 207 240 276 290 282 270 229 207 215 217 222 224 211 198 196 200
120 77 59 51 69 56 239 160 276 234 221 233 220 212 209 197 196 193 193 185 183 181 180 175 180 195 188 183 186 187 191 192 199 219 234 258 275 285 275 233 210 220 222 226 225 213 199 201 196
97 93 53 19 22 251 262 194 249 249 232 224 218 209 207 195 192 188 184 185 185 184 183 178 184 197 192 184 191 198 194 192 205 218 222 238 267 280 271 249 226 228 227 223 206 186 196 190 183
155 134 151 175 199 265 314 236 255 264 257 234 218 202 195 192 192 191 188 186 188 185 182 182 187 195 192 189 192 193 190 190 208 214 214 222 235 249 249 206 234 267 255 211 124 133 187 163 183
130 144 151 125 136 114 276 283 299 294 320 243 195 179 190 193 190 187 182 182 183 182 185 185 185 188 191 188 181 180 186 192 206 213 205 223 237 210 85 89 86 52 53 61 77 70 36 97 168
130 141 106 112 135 200 285 275 251 260 246 237 215 203 200 190 184 178 177 179 179 177 173 168 172 178 182 168 173 179 180 187 190 166 161 134 95 66 73 68 72 69 69 76 83 68 38 65 8
109 95 103 108 140 149 206 265 231 222 218 216 222 211 192 185 183 180 175 172 167 160 160 164 167 166 165 163 162 162 160 149 133 133 136 135 105 88 81 76 71 65 66 71 86 77 66 76 38
147 154 144 144 178 159 162 261 271 234 226 213 218 204 180 176 173 166 159 154 156 160 162 164 167 164 171 159 153 154 136 125 127 126 120 112 103 91 92 86 76 63 55 56 78 70 51 82 64